Laurinburg-Maxton, NC

6:55 AM EDT on June 28, 2017 (GMT -0400)
Laurinburg-Maxton

Weather History for KMEB - March, 2013

Change the Weather History Date:

Tuesday, March 5, 2013

  Actual Average (KHFF) Record (KHFF)
Temperature  
Mean Temperature 46 °F -  
Max Temperature 59 °F 55 °F 80 °F (2004)
Min Temperature 33 °F 36 °F 24 °F (2002)
Degree Days  
Heating Degree Days 19    
Moisture  
Dew Point 39 °F    
Average Humidity 70    
Maximum Humidity 86    
Minimum Humidity 51    
Precipitation  
Precipitation 0.03 in - - ()
Sea Level Pressure  
Sea Level Pressure 29.92 in    
Wind  
Wind Speed 4 mph (SSW)    
Max Wind Speed 15 mph    
Max Gust Speed 23 mph    
Visibility 10 miles    
Events Rain    
Averages and records for this station are not official NWS values.
T = Trace of Precipitation, MM = Missing Value Source: NWS Daily Summary

Daily Weather History Graph

Daily Weather History Graph

Search for Another Location

Airport or City:

Trip Planner

Search our weather history database for the weather conditions in past years. The results will help you decide how hot, cold, wet, or windy it might be!

Date:

Astronomy

Mar. 05, 2013 Rise Set
Actual Time 6:41 AM EST 6:17 PM EST
Civil Twilight 6:16 AM EST 6:42 PM EST
Nautical Twilight 5:46 AM EST 7:11 PM EST
Astronomical Twilight 5:17 AM EST 7:40 PM EST
Moon 1:41 AM EST (3/5) 12:04 PM EST (3/5)
Length of Visible Light 12h 26m
Length of Day
11h 35m
Last Quarter, 41% of the Moon is Illuminated
Mar 5
Last Quarter
Mar 11
New
Mar 19
First Quarter
Mar 27
Full
Apr 3
Last Quarter

Hourly Weather History & Observations

Time (EST) Temp. Windchill Dew Point Humidity Pressure Visibility Wind Dir Wind Speed Gust Speed Precip Events Conditions
12:52 AM 33.1 °F - 27.0 °F 78% 30.10 in 10.0 mi Calm Calm - N/A   Clear
2:52 AM 35.1 °F - 28.9 °F 78% 30.09 in 10.0 mi Calm Calm - N/A   Clear
3:52 AM 37.9 °F 35.5 °F 26.1 °F 62% 30.09 in 10.0 mi SW 3.5 mph - N/A   Clear
4:52 AM 37.0 °F 34.5 °F 28.9 °F 73% 30.09 in 10.0 mi SW 3.5 mph - N/A   Clear
5:52 AM 36.0 °F 33.3 °F 27.0 °F 70% 30.09 in 10.0 mi SSW 3.5 mph - N/A   Partly Cloudy
6:52 AM 37.0 °F - 30.0 °F 76% 30.08 in 10.0 mi Calm Calm - N/A   Clear
7:52 AM 41.0 °F 39.0 °F 32.0 °F 70% 30.08 in 10.0 mi SSW 3.5 mph - N/A   Clear
8:52 AM 48.0 °F - 34.0 °F 58% 30.06 in 10.0 mi SW 8.1 mph - N/A   Clear
9:52 AM 52.0 °F - 35.1 °F 53% 30.05 in 10.0 mi SW 6.9 mph - N/A   Overcast
10:52 AM 54.0 °F - 36.0 °F 51% 30.03 in 10.0 mi SW 4.6 mph - N/A   Overcast
11:52 AM 55.0 °F - 37.0 °F 51% 30.01 in 10.0 mi WSW 15.0 mph 23.0 mph N/A   Overcast
12:34 PM 53.6 °F - 41.0 °F 62% 29.99 in 9.0 mi SW 13.8 mph 19.6 mph 0.00 in Rain Light Rain
12:52 PM 52.0 °F - 43.0 °F 71% 29.99 in 9.0 mi SW 6.9 mph - 0.00 in Rain Light Rain
1:52 PM 51.1 °F - 45.0 °F 80% 29.94 in 10.0 mi Calm Calm - 0.00 in   Overcast
2:02 PM 51.8 °F - 44.6 °F 76% 29.93 in 10.0 mi Calm Calm - N/A   Overcast
2:52 PM 54.0 °F - 45.0 °F 72% 29.90 in 10.0 mi Calm Calm - N/A   Overcast
3:52 PM 57.0 °F - 45.0 °F 64% 29.86 in 10.0 mi East 4.6 mph - N/A   Clear
4:52 PM 57.0 °F - 46.0 °F 67% 29.83 in 10.0 mi NE 5.8 mph - N/A   Scattered Clouds
5:52 PM 55.0 °F - 46.9 °F 74% 29.80 in 10.0 mi East 8.1 mph - N/A   Mostly Cloudy
6:52 PM 53.1 °F - 46.9 °F 80% 29.78 in 10.0 mi ESE 4.6 mph - N/A   Overcast
7:52 PM 59.0 °F - 46.0 °F 62% 29.71 in 10.0 mi South 12.7 mph 21.9 mph N/A   Partly Cloudy
8:52 PM 57.9 °F - 46.0 °F 65% 29.68 in 10.0 mi South 12.7 mph - N/A   Overcast
9:52 PM 54.0 °F - 48.0 °F 80% 29.64 in 9.0 mi South 13.8 mph - 0.02 in Rain Light Rain
10:52 PM 54.0 °F - 48.0 °F 80% 29.64 in 10.0 mi WSW 8.1 mph - 0.01 in   Overcast
11:52 PM 53.1 °F - 48.9 °F 86% 29.60 in 10.0 mi SW 10.4 mph - N/A   Scattered Clouds